Tracking 21076 objects as of 9-Aug-2020
HD Live streaming from Space Station
objects crossing your sky now
Track the most recent launched group of Starlink satellites

COSMOS 1761

Track COSMOS 1761 now!
COSMOS 1761 is classified as:


NORAD ID: 16849
Int'l Code: 1986-050A
Perigee: 6,028.3 km
Apogee: 34,348.5 km
Inclination: 69.7 °
Period: 717.9 minutes
Semi major axis: 26559 km
RCS: 12.1379 m2 (large)
Launch date: July 5, 1986
Source: Commonwealth of Independent States (former USSR) (CIS)
Launch site: PLESETSK MISSILE AND SPACE COMPLEX (PKMTR)
aabbcc
Your satellite tracking list
Your tracking list is empty




NASA's NSSDC Master Catalog

Two Line Element Set (TLE):
1 16849U 86050A   20222.27937870 -.00000525  00000-0  00000+0 0  9990
2 16849  69.7158 155.0893 5331497  60.4959  88.0032  2.00574556249833
Source of the keplerian elements: AFSPC